Weather History for St. Joseph, MO

Change the Weather History Date:

Friday, November 11, 2011

  Actual Average Record
Temperature  
Mean Temperature 46 °F 44 °F  
Max Temperature 61 °F 55 °F 78 °F (1989)
Min Temperature 30 °F 33 °F 5 °F (1986)
Degree Days  
Heating Degree Days 19 21  
Month to date heating degree days 206 204  
Since 1 July heating degree days 545 623  
Cooling Degree Days 0 0  
Month to date cooling degree days 0 0  
Year to date cooling degree days 494 1220  
Moisture  
Dew Point 33 °F    
Average Humidity 67    
Maximum Humidity 92    
Minimum Humidity 42    
Precipitation  
Precipitation 0.00 in 0.05 in 2.27 in (1922)
Month to date precipitation 3.40 0.75  
Year to date precipitation 17.35 33.28  
Sea Level Pressure  
Sea Level Pressure 29.85 in    
Wind  
Wind Speed 5 mph (SSW)    
Max Wind Speed 13 mph    
Max Gust Speed 16 mph    
Visibility 10 miles    
Events      
T = Trace of Precipitation, MM = Missing Value Source: NWS Daily Summary

Daily Weather History Graph

Daily Weather History Graph

Search for Another Location

Airport:

Trip Planner

Search our weather history database for the weather conditions in past years. The results will help you decide how hot, cold, wet, or windy it might be!

Date:

Astronomy

Nov. 11, 2011 Rise Set
Actual Time 6:59 AM CST 5:07 PM CST
Civil Twilight 6:30 AM CST 5:36 PM CST
Nautical Twilight 5:58 AM CST 6:08 PM CST
Astronomical Twilight 5:26 AM CST 6:40 PM CST
Moon 5:37 PM CST (11/11) 7:48 AM CST (11/11)
Length of Visible Light 11h 05m
Length of Day
10h 07m
Full, 99% of the Moon is Illuminated
Nov 11
Full
Nov 18
Last Quarter
Nov 25
New
Dec 2
First Quarter
Dec 10
Full

Hourly Weather History & Observations

Time (CST) Temp. Windchill Dew Point Humidity Pressure Visibility Wind Dir Wind Speed Gust Speed Precip Events Conditions
12:53 AM 33.1 °F - 28.9 °F 85% 30.06 in 10.0 mi Calm Calm - N/A   Clear
1:53 AM 33.1 °F - 27.0 °F 78% 30.03 in 10.0 mi Calm Calm - N/A   Clear
2:53 AM 32.0 °F - 26.6 °F 80% 29.99 in 10.0 mi Calm Calm - N/A   Clear
3:53 AM 34.0 °F - 26.1 °F 73% 29.96 in 10.0 mi Calm Calm - N/A   Clear
4:53 AM 34.0 °F 26.6 °F 26.1 °F 73% 29.93 in 10.0 mi SSE 9.2 mph - N/A   Clear
5:53 AM 35.6 °F 28.0 °F 26.6 °F 70% 29.87 in 10.0 mi South 10.4 mph - N/A   Clear
6:53 AM 34.0 °F 27.2 °F 28.0 °F 79% 29.86 in 10.0 mi SSE 8.1 mph - N/A   Clear
7:53 AM 36.0 °F 33.3 °F 30.0 °F 79% 29.86 in 10.0 mi South 3.5 mph - N/A   Clear
8:53 AM 39.2 °F 37.0 °F 33.8 °F 81% 29.85 in 10.0 mi South 3.5 mph - N/A   Clear
9:53 AM 46.4 °F 41.9 °F 37.4 °F 71% 29.83 in 10.0 mi SSW 9.2 mph - N/A   Clear
10:53 AM 52.0 °F - 35.1 °F 53% 29.84 in 10.0 mi SW 11.5 mph - N/A   Clear
11:53 AM 55.0 °F - 35.1 °F 47% 29.83 in 10.0 mi WSW 5.8 mph - N/A   Clear
12:53 PM 57.9 °F - 35.1 °F 42% 29.80 in 10.0 mi SW 8.1 mph - N/A   Clear
1:53 PM 60.1 °F - 39.0 °F 46% 29.79 in 10.0 mi SSW 6.9 mph - N/A   Clear
2:53 PM 61.0 °F - 37.9 °F 42% 29.80 in 10.0 mi SSW 11.5 mph - N/A   Clear
3:53 PM 60.1 °F - 37.9 °F 44% 29.79 in 10.0 mi SSW 9.2 mph - N/A   Clear
4:53 PM 57.2 °F - 37.4 °F 48% 29.78 in 10.0 mi SSW 4.6 mph - N/A   Clear
5:53 PM 48.9 °F - 37.9 °F 66% 29.80 in 10.0 mi South 3.5 mph - N/A   Clear
6:53 PM 43.0 °F - 36.0 °F 76% 29.80 in 10.0 mi Calm Calm - N/A   Clear
7:53 PM 41.0 °F - 34.0 °F 76% 29.80 in 10.0 mi Calm Calm - N/A   Clear
8:53 PM 36.0 °F - 32.0 °F 86% 29.81 in 10.0 mi Calm Calm - N/A   Clear
9:53 PM 34.0 °F - 30.9 °F 89% 29.82 in 10.0 mi Calm Calm - N/A   Clear
10:53 PM 41.0 °F 39.0 °F 34.0 °F 76% 29.79 in 10.0 mi SSW 3.5 mph - N/A   Clear
11:53 PM 43.0 °F 39.5 °F 35.1 °F 74% 29.78 in 10.0 mi South 5.8 mph - N/A   Clear